Miscellaneous Local Product
Issued by NWS Hastings, NE

Home | Current Version | Previous Version | Graphics & Text | Print | Product List | Glossary On
Versions: 1 2 3 4 5 6 7 8 9 10 11 12 13 14 15 16 17 18 19 20 21 22 23 24 25 26 27 28 29 30 31 32 33 34 35 36 37 38 39 40 41 42 43 44 45 46 47 48 49 50
162
AXUS43 KGID 130202
MISGRI

GID CWA HOURLY WEATHER ROUNDUP
NATIONAL WEATHER SERVICE HASTINGS NE
800 PM CST FRI FEB 12 2016

NOTE: "FAIR" INDICATES FEW OR NO CLOUDS BELOW 12,000 FEET WITH NO
SIGNIFICANT WEATHER AND/OR OBSTRUCTIONS TO VISIBILITY.

...SOUTH CENTRAL NEBRASKA...

CITY           SKY/WX    TMP DP  RH WIND       PRES   REMARKS
GRAND ISLAND   CLOUDY    20  13  74 NE13      30.56R WCI   7
HASTINGS       CLOUDY    22  14  71 E12       30.53R WCI  10
KEARNEY        CLOUDY    25  16  68 E13       30.52R WCI  13
ORD            CLOUDY    20  12  71 E7        30.53R WCI  11
YORK           CLOUDY    19  12  73 NE12      30.57R WCI   7
AURORA         CLOUDY    19  12  72 NE12      30.56R WCI   7
LEXINGTON      CLOUDY    26  20  77 E9        30.48S WCI  17
HOLDREGE       CLOUDY    25  18  74 E12       30.49R WCI  14
HEBRON         CLOUDY    24  15  70 NE13      30.56S WCI  12

...NEBRASKA PANHANDLE...

CITY           SKY/WX    TMP DP  RH WIND       PRES   REMARKS
CHADRON        CLOUDY    31  26  82 SE3       30.30F
ALLIANCE       CLOUDY    33  29  85 S12       30.30F WCI  24
SCOTTSBLUFF    CLOUDY    33  30  88 SE17      30.29F WCI  22
SIDNEY         FOG       30  30 100 S15       30.32S VSB 1/4 WCI  19

...WESTERN AND NORTH CENTRAL NEBRASKA...

CITY           SKY/WX    TMP DP  RH WIND       PRES   REMARKS
VALENTINE      CLOUDY    23  15  71 E12       30.45F WCI  12
AINSWORTH      CLOUDY    22  15  74 E8        30.47S WCI  13
ONEILL         CLOUDY    16   9  71 NE8       30.54S WCI   6
BROKEN BOW     CLOUDY    24  18  77 E9        30.47R WCI  14
IMPERIAL       CLOUDY    32  28  85 SE14      30.38R WCI  22
NORTH PLATTE   MIX PCPN  28  24  85 E14       30.43S WCI  17
MCCOOK         CLOUDY    29  27  92 E15       30.44R FOG     WCI  18

...EASTERN NEBRASKA...

CITY           SKY/WX    TMP DP  RH WIND       PRES   REMARKS
NORFOLK        CLOUDY    14   5  67 N7        30.58S WCI   4
SO SIOUX CITY  CLOUDY    11   1  64 N7        30.63R WCI   0
TEKAMAH        CLOUDY    10   4  76 N5        30.63R WCI   2
COLUMBUS       CLOUDY    16   0  48 NE8       30.60R WCI   5
ALBION         CLOUDY    16   8  73 NE9       30.56S WCI   4
OMAHA EPPLEY   CLOUDY    14   3  61 N9        30.62S WCI   2
OFFUTT AFB     CLOUDY    15   1  53 N9        30.60S WCI   3
MILLARD        CLOUDY    15   3  57 N6        30.62R WCI   7
LINCOLN        CLEAR     17  10  74 N13       30.61S WCI   4
NEBRASKA CITY  CLOUDY    17   8  67 N14       30.59R WCI   3
BEATRICE       CLOUDY    20  13  73 N12       30.58R WCI   8
FALLS CITY     CLEAR     19   8  62 NE9       30.58R WCI   8

...NORTHERN KANSAS...

CITY           SKY/WX    TMP DP  RH WIND       PRES   REMARKS
GOODLAND       CLOUDY    30  29  96 SE14      30.37R FOG     WCI  19
HILL CITY      CLOUDY    32  26  78 E12       30.47R WCI  23
NORTON         CLOUDY    28  23  80 E10       30.46R WCI  19
PHILLIPSBURG   CLOUDY    28  27  93 NE14      30.51S WCI  17
SMITH CENTER   CLOUDY    25  19  80 NE14      30.53R WCI  13
BELOIT         CLOUDY    27  18  69 NE10      30.54S WCI  17
HAYS           CLOUDY    32  19  59 E15       30.47R WCI  22
RUSSELL        CLOUDY    30  24  78 NE13      30.48S WCI  20
CONCORDIA      CLOUDY    26  15  63 NE12      30.54R WCI  16
SALINA         CLOUDY    32  19  58 NE10      30.54R WCI  24
TOPEKA         CLEAR     26   5  40 N12       30.57R WCI  16



USA.gov is the U.S. government's official web portal to all federal, state and local government web resources and services.